EDT,Max TemperatureF,Mean TemperatureF,Min TemperatureF,Max Dew PointF,MeanDew PointF,Min DewpointF,Max Humidity, Mean Humidity, Min Humidity, Max Sea Level PressureIn, Mean Sea Level PressureIn, Min Sea Level PressureIn, Max VisibilityMiles, Mean VisibilityMiles, Min VisibilityMiles, Max Wind SpeedMPH, Mean Wind SpeedMPH, Max Gust SpeedMPH,PrecipitationIn, CloudCover, Events, WindDirDegrees
2013-4-1,53,45,37,42,27,13,80,51,21,30.17,30.04,29.86,10,10,10,18,8,23,0.00,3,,307
2013-4-2,50,40,29,20,16,10,63,42,20,30.31,30.25,30.17,10,10,10,14,4,18,0.00,0,,311
2013-4-3,52,39,26,21,15,11,75,48,21,30.42,30.34,30.30,10,10,10,16,6,21,0.00,0,,64
2013-4-4,53,46,38,27,19,14,53,40,26,30.30,30.13,30.03,10,10,10,13,4,18,0.00,0,,77
2013-4-5,67,50,32,31,27,24,78,50,22,30.13,30.07,30.02,10,10,10,14,3,25,0.00,0,,345
2013-4-6,72,59,46,35,31,26,46,35,24,30.17,30.06,29.93,10,10,10,16,8,24,0.00,0,,148
2013-4-7,73,66,58,51,43,35,51,43,34,29.99,29.95,29.91,10,10,10,18,9,25,T,5,,206
2013-4-8,74,64,54,54,50,45,72,59,46,29.99,29.95,29.90,10,10,2,22,6,29,0.00,5,,200
2013-4-9,82,71,59,58,55,51,72,57,42,30.06,30.00,29.94,10,10,10,20,8,31,0.00,3,,195
2013-4-10,85,75,64,61,58,55,73,58,43,29.98,29.90,29.77,10,10,10,20,6,28,0.00,3,,185
2013-4-11,74,64,53,63,59,54,100,75,49,29.81,29.68,29.56,10,7,2,16,7,23,1.05,7,Rain,199
2013-4-12,54,47,39,54,39,31,93,70,46,29.98,29.79,29.60,10,8,2,21,8,30,0.00,6,Rain,271
2013-4-13,62,50,37,37,33,30,76,56,36,30.08,30.03,30.00,10,10,10,18,7,25,0.00,0,,248
2013-4-14,75,58,41,46,39,36,82,56,29,30.04,29.95,29.84,10,10,10,12,6,16,0.00,0,,149
2013-4-15,71,65,58,53,51,47,72,63,53,29.99,29.95,29.91,10,10,10,14,6,20,0.00,6,,161
2013-4-16,82,72,62,64,60,53,93,74,54,30.17,30.08,29.95,10,9,1,23,8,33,0.77,5,Rain-Thunderstorm,180
2013-4-17,76,69,61,65,61,59,93,81,69,30.16,30.09,29.94,10,10,10,17,5,25,0.02,5,Rain-Thunderstorm,114
2013-4-18,83,74,65,62,57,50,81,58,35,29.92,29.79,29.61,10,10,10,24,12,36,T,1,,171
2013-4-19,74,58,41,62,41,29,93,71,49,30.07,29.76,29.52,10,8,2,25,12,33,0.92,8,Rain,260
2013-4-20,57,47,36,33,27,20,82,53,24,30.39,30.23,30.08,10,10,10,17,7,22,0.00,0,,281
2013-4-21,61,50,39,31,28,26,59,43,27,30.50,30.41,30.34,10,10,10,14,6,18,0.00,0,,65
2013-4-22,71,55,39,41,36,30,79,54,29,30.35,30.24,30.12,10,10,10,10,2,14,0.00,0,,180
2013-4-23,71,59,47,51,46,41,74,61,47,30.13,30.04,29.88,10,10,10,17,7,25,0.00,1,,179
2013-4-24,68,53,38,57,45,33,93,74,55,30.29,29.98,29.82,10,6,2,24,9,29,0.83,7,Rain-Thunderstorm,291
2013-4-25,62,48,34,37,34,29,96,66,36,30.39,30.33,30.29,10,9,6,17,6,23,T,1,,258
2013-4-26,64,51,37,37,33,28,79,53,27,30.45,30.40,30.33,10,10,10,12,3,15,0.00,1,,127
2013-4-27,60,56,52,54,48,38,93,72,51,30.35,30.18,29.99,10,10,6,14,4,18,0.12,8,Rain,127
2013-4-28,66,60,54,57,54,52,100,86,72,29.97,29.91,29.87,10,10,7,16,7,23,0.04,7,Rain,214
2013-4-29,67,61,54,54,52,50,93,76,58,30.04,29.99,29.94,10,8,4,9,3,12,0.00,7,,230
2013-4-30,81,65,49,56,51,47,93,63,32,30.04,30.00,29.96,10,10,5,10,3,16,0.00,0,,137